Miscellaneous Local Product
Issued by NWS Hastings, NE

Home | Current Version | Previous Version | Graphics & Text | Print | Product List | Glossary On
Versions: 1 2 3 4 5 6 7 8 9 10 11 12 13 14 15 16 17 18 19 20 21 22 23 24 25 26 27 28 29 30 31 32 33 34 35 36 37 38 39 40 41 42 43 44 45 46 47 48 49 50
000
AXUS43 KGID 200202
MISGRI

GID CWA HOURLY WEATHER ROUNDUP
NATIONAL WEATHER SERVICE HASTINGS NE
900 PM CDT TUE AUG 19 2014

NOTE: "FAIR" INDICATES FEW OR NO CLOUDS BELOW 12,000 FEET WITH NO
SIGNIFICANT WEATHER AND/OR OBSTRUCTIONS TO VISIBILITY.

...SOUTH CENTRAL NEBRASKA...

CITY           SKY/WX    TMP DP  RH WIND       PRES   REMARKS
GRAND ISLAND   CLEAR     78  69  73 E7        29.78S
HASTINGS       CLEAR     80  68  66 SE10      29.78R
KEARNEY        CLEAR     75  68  78 E7        29.79R
ORD            PTCLDY    77  69  76 SE7       29.77S
AURORA         PTCLDY    77  73  87 E6        29.79R
LEXINGTON      PTCLDY    78  70  75 E9        29.77R
HOLDREGE       CLEAR     77  67  72 SE10      29.77S
HEBRON         CLEAR     77  68  73 SE6       29.78R

...NEBRASKA PANHANDLE...

CITY           SKY/WX    TMP DP  RH WIND       PRES   REMARKS
CHADRON        CLOUDY    85  45  24 S22G28    29.71R
ALLIANCE       CLOUDY    74  50  42 S33G43    29.82F
SCOTTSBLUFF    MOCLDY    70  59  68 SE5       29.82S
SIDNEY         CLOUDY    76  52  43 S18G45    29.92R THUNDER

...WESTERN AND NORTH CENTRAL NEBRASKA...

CITY           SKY/WX    TMP DP  RH WIND       PRES   REMARKS
VALENTINE      PTCLDY    81  65  58 SE14      29.77R
AINSWORTH      PTCLDY    75  65  70 SE8       29.80R
ONEILL         MOCLDY    76  67  74 SE6       29.80S
BROKEN BOW     CLEAR     77  70  79 SE8       29.79S
IMPERIAL       PTCLDY    83  63  50 SE14      29.76R
NORTH PLATTE   CLOUDY    76  68  76 E10       29.77R
MCCOOK         PTCLDY    82  63  52 E6        29.74S

...EASTERN NEBRASKA...

CITY           SKY/WX    TMP DP  RH WIND       PRES   REMARKS
NORFOLK        MOCLDY    75  66  73 SE6       29.79S
SO SIOUX CITY  PTCLDY    76  67  73 E5        29.79S
TEKAMAH        CLEAR     74  68  81 E5        29.79R
COLUMBUS       PTCLDY    73  70  88 E6        29.80R
ALBION         MOCLDY    76  67  74 SE6       29.79S
OMAHA EPPLEY   PTCLDY    80  65  59 E6        29.78F
OFFUTT AFB     CLEAR     75  73  93 E5        29.78S
MILLARD        CLEAR     81  68  65 CALM      29.78S
LINCOLN        CLEAR     81  68  64 NE9       29.78R
NEBRASKA CITY  CLEAR     78  70  74 SE5       29.79S
BEATRICE       CLEAR     82  72  72 SE5       29.78R
FALLS CITY     CLEAR     78  74  87 E6        29.78R

...NORTHERN KANSAS...

CITY           SKY/WX    TMP DP  RH WIND       PRES   REMARKS
GOODLAND       MOCLDY    82  55  39 S9        29.82R
HILL CITY      PTCLDY    86  60  41 S10       29.76R
NORTON         CLEAR     82  54  36 SE8       29.76R
PHILLIPSBURG   CLEAR     81  66  61 E6        29.75R
SMITH CENTER   CLEAR     81  64  57 E10       29.76R
BELOIT         CLEAR     82  64  54 SE6       29.74R
HAYS           CLEAR     84  63  48 S13       29.78R
RUSSELL        CLEAR     84  62  47 S10       29.76R
CONCORDIA      CLEAR     77  71  82 SE6       29.76S
SALINA         CLEAR     83  68  60 SE7       29.77R
TOPEKA         CLEAR     82  73  74 CALM      29.77R



USA.gov is the U.S. government's official web portal to all federal, state and local government web resources and services.